When you browse on this site, cookies collect data to enhance your experience and personalize the content and advertising you see.
Visit our Privacy Policy to learn more. By continuing to use the site, you agree to this use of cookies and data.
  • In Czech Republic
  • List of Countries
  • For 7 days
  • Water Temperature
  • Weather Map
  • Weather Widgets
  • user-avatar
    Login

    Hourly Weather Sajur

    Today, 1 April, Wednesday

    Time Temperature Precipitation Wind Pressure Humidity
    00:00 +13°C° 0 mm 2 mps 714 mmHg 89%
    01:00 +11°C° 0 mm 3 mps 714 mmHg 90%
    02:00 +11°C° 0 mm 3 mps 714 mmHg 90%
    03:00 +11°C° 0.4 mm 3 mps 714 mmHg 91%
    04:00 +11°C° 0.4 mm 4 mps 714 mmHg 91%
    05:00 +12°C° 0.4 mm 4 mps 714 mmHg 92%
    06:00 +12°C° 0.6 mm 5 mps 714 mmHg 90%
    07:00 +13°C° 0.6 mm 6 mps 714 mmHg 89%
    08:00 +12°C° 0.6 mm 7 mps 714 mmHg 87%
    09:00 +14°C° 0.3 mm 7 mps 715 mmHg 84%
    10:00 +15°C° 0.3 mm 7 mps 715 mmHg 81%
    11:00 +15°C° 0.3 mm 8 mps 716 mmHg 77%
    12:00 +16°C° 0.2 mm 7 mps 716 mmHg 78%
    13:00 +16°C° 0.2 mm 7 mps 716 mmHg 78%
    14:00 +16°C° 0.2 mm 6 mps 716 mmHg 79%
    15:00 +15°C° 0.1 mm 6 mps 716 mmHg 80%
    16:00 +15°C° 0.1 mm 5 mps 716 mmHg 81%
    17:00 +14°C° 0.1 mm 4 mps 716 mmHg 82%
    18:00 +13°C° 0.1 mm 4 mps 717 mmHg 86%
    19:00 +12°C° 0.1 mm 3 mps 717 mmHg 90%
    20:00 +11°C° 0.1 mm 3 mps 717 mmHg 95%
    21:00 +12°C° 0.1 mm 2 mps 717 mmHg 94%
    22:00 +12°C° 0.1 mm 2 mps 717 mmHg 94%
    23:00 +12°C° 0.1 mm 2 mps 717 mmHg 94%

    Tomorrow, 2 April, Thursday

    Time Temperature Precipitation Wind Pressure Humidity
    00:00 +12°C° 0.1 mm 1 mps 717 mmHg 93%
    01:00 +12°C° 0.1 mm 1 mps 717 mmHg 93%
    02:00 +12°C° 0.1 mm 1 mps 717 mmHg 93%
    03:00 +11°C° 0.1 mm 1 mps 717 mmHg 93%
    04:00 +11°C° 0.1 mm 1 mps 717 mmHg 94%
    05:00 +10°C° 0.1 mm 1 mps 717 mmHg 94%
    06:00 +12°C° 0 mm 1 mps 718 mmHg 89%
    07:00 +13°C° 0 mm 1 mps 718 mmHg 84%
    08:00 +14°C° 0 mm 1 mps 719 mmHg 80%
    09:00 +15°C° 0 mm 2 mps 719 mmHg 73%
    10:00 +16°C° 0 mm 2 mps 719 mmHg 65%
    11:00 +17°C° 0 mm 3 mps 719 mmHg 58%
    12:00 +17°C° 0 mm 3 mps 719 mmHg 58%
    13:00 +17°C° 0 mm 4 mps 719 mmHg 58%
    14:00 +18°C° 0 mm 4 mps 719 mmHg 58%
    15:00 +17°C° 0 mm 4 mps 718 mmHg 63%
    16:00 +16°C° 0 mm 3 mps 718 mmHg 67%
    17:00 +14°C° 0 mm 3 mps 718 mmHg 72%
    18:00 +13°C° 0 mm 2 mps 718 mmHg 77%
    19:00 +12°C° 0 mm 1 mps 718 mmHg 82%
    20:00 +11°C° 0 mm 1 mps 718 mmHg 87%
    21:00 +11°C° 0 mm 1 mps 718 mmHg 85%
    22:00 +11°C° 0 mm 1 mps 719 mmHg 84%
    23:00 +9°C° 0 mm 0 mps 719 mmHg 83%

    Day after tomorrow, 3 April, Friday

    Time Temperature Precipitation Wind Pressure Humidity
    00:00 +9°C° 0 mm 0 mps 718 mmHg 84%
    01:00 +9°C° 0 mm 0 mps 718 mmHg 84%
    02:00 +10°C° 0 mm 1 mps 718 mmHg 84%
    03:00 +9°C° 0 mm 1 mps 718 mmHg 86%
    04:00 +9°C° 0 mm 1 mps 718 mmHg 87%
    05:00 +9°C° 0 mm 1 mps 718 mmHg 88%
    06:00 +11°C° 0 mm 1 mps 719 mmHg 82%
    07:00 +12°C° 0 mm 2 mps 719 mmHg 77%
    08:00 +14°C° 0 mm 2 mps 719 mmHg 71%
    09:00 +16°C° 0 mm 2 mps 720 mmHg 65%
    10:00 +17°C° 0 mm 3 mps 720 mmHg 60%
    11:00 +18°C° 0 mm 3 mps 720 mmHg 54%
    12:00 +18°C° 0 mm 4 mps 720 mmHg 54%
    13:00 +18°C° 0 mm 4 mps 720 mmHg 53%
    14:00 +19°C° 0 mm 5 mps 720 mmHg 53%
    15:00 +18°C° 0 mm 4 mps 719 mmHg 59%
    16:00 +17°C° 0 mm 3 mps 719 mmHg 64%
    17:00 +16°C° 0 mm 2 mps 719 mmHg 70%
    18:00 +14°C° 0 mm 2 mps 719 mmHg 75%
    19:00 +13°C° 0 mm 1 mps 720 mmHg 80%
    20:00 +11°C° 0 mm 1 mps 720 mmHg 85%
    21:00 +11°C° 0 mm 1 mps 720 mmHg 84%
    22:00 +10°C° 0 mm 0 mps 720 mmHg 83%
    23:00 +10°C° 0 mm 0 mps 720 mmHg 81%

    4 April, Saturday

    Time Temperature Precipitation Wind Pressure Humidity
    00:00 +11°C° 0 mm 1 mps 720 mmHg 80%
    01:00 +11°C° 0 mm 1 mps 720 mmHg 78%
    02:00 +11°C° 0 mm 1 mps 720 mmHg 77%
    03:00 +10°C° 0 mm 1 mps 720 mmHg 74%
    04:00 +10°C° 0 mm 1 mps 720 mmHg 71%
    05:00 +10°C° 0 mm 1 mps 720 mmHg 69%
    06:00 +12°C° 0 mm 1 mps 720 mmHg 63%
    07:00 +15°C° 0 mm 1 mps 721 mmHg 58%
    08:00 +18°C° 0 mm 1 mps 721 mmHg 52%
    09:00 +19°C° 0 mm 1 mps 721 mmHg 49%
    10:00 +21°C° 0 mm 1 mps 722 mmHg 46%
    11:00 +23°C° 0 mm 1 mps 722 mmHg 43%
    12:00 +23°C° 0 mm 1 mps 721 mmHg 43%
    13:00 +24°C° 0 mm 2 mps 721 mmHg 43%
    14:00 +24°C° 0 mm 2 mps 721 mmHg 43%
    15:00 +23°C° 0 mm 2 mps 721 mmHg 49%
    16:00 +23°C° 0 mm 2 mps 720 mmHg 54%
    17:00 +22°C° 0 mm 1 mps 720 mmHg 60%
    18:00 +19°C° 0 mm 2 mps 720 mmHg 60%
    19:00 +18°C° 0 mm 2 mps 720 mmHg 59%
    20:00 +17°C° 0 mm 2 mps 720 mmHg 58%
    21:00 +17°C° 0 mm 2 mps 721 mmHg 55%
    22:00 +17°C° 0 mm 2 mps 721 mmHg 52%
    23:00 +17°C° 0 mm 2 mps 721 mmHg 49%

    5 April, Sunday

    Time Temperature Precipitation Wind Pressure Humidity
    00:00 +17°C° 0 mm 2 mps 720 mmHg 49%
    01:00 +16°C° 0 mm 3 mps 720 mmHg 49%
    02:00 +16°C° 0 mm 3 mps 719 mmHg 49%
    03:00 +15°C° 0 mm 4 mps 719 mmHg 48%
    04:00 +17°C° 0 mm 4 mps 719 mmHg 46%
    05:00 +16°C° 0 mm 5 mps 719 mmHg 44%
    06:00 +17°C° 0 mm 6 mps 720 mmHg 45%
    07:00 +19°C° 0 mm 6 mps 720 mmHg 46%
    08:00 +20°C° 0 mm 6 mps 720 mmHg 47%
    09:00 +21°C° 0 mm 7 mps 720 mmHg 45%
    10:00 +22°C° 0 mm 8 mps 720 mmHg 43%
    11:00 +24°C° 0 mm 9 mps 720 mmHg 41%
    12:00 +26°C° 0 mm 9 mps 720 mmHg 38%
    13:00 +27°C° 0 mm 8 mps 719 mmHg 36%
    14:00 +28°C° 0 mm 8 mps 719 mmHg 33%
    15:00 +27°C° 0 mm 7 mps 718 mmHg 36%
    16:00 +26°C° 0 mm 6 mps 718 mmHg 39%
    17:00 +25°C° 0 mm 5 mps 717 mmHg 42%
    18:00 +23°C° 0 mm 5 mps 717 mmHg 38%
    19:00 +23°C° 0 mm 5 mps 717 mmHg 33%
    20:00 +22°C° 0 mm 5 mps 717 mmHg 29%
    21:00 +22°C° 0 mm 5 mps 716 mmHg 29%
    22:00 +22°C° 0 mm 6 mps 716 mmHg 29%
    23:00 +22°C° 0 mm 6 mps 716 mmHg 29%

    6 April, Monday

    Time Temperature Precipitation Wind Pressure Humidity
    00:00 +22°C° 0 mm 6 mps 715 mmHg 29%
    01:00 +21°C° 0 mm 5 mps 715 mmHg 29%
    02:00 +21°C° 0 mm 4 mps 715 mmHg 29%
    03:00 +21°C° 0 mm 4 mps 715 mmHg 30%
    04:00 +20°C° 0 mm 4 mps 715 mmHg 31%
    05:00 +20°C° 0 mm 3 mps 716 mmHg 31%
    06:00 +21°C° 0 mm 3 mps 716 mmHg 36%
    07:00 +21°C° 0 mm 2 mps 716 mmHg 40%
    08:00 +23°C° 0 mm 2 mps 717 mmHg 44%
    09:00 +24°C° 0 mm 2 mps 717 mmHg 45%
    10:00 +24°C° 0 mm 3 mps 717 mmHg 46%
    11:00 +25°C° 0 mm 3 mps 717 mmHg 47%
    12:00 +24°C° 0 mm 3 mps 717 mmHg 49%
    13:00 +24°C° 0 mm 3 mps 717 mmHg 51%
    14:00 +24°C° 0 mm 3 mps 717 mmHg 53%
    15:00 +21°C° 0 mm 3 mps 717 mmHg 60%
    16:00 +20°C° 0 mm 3 mps 717 mmHg 67%
    17:00 +18°C° 0 mm 3 mps 717 mmHg 74%
    18:00 +17°C° 0 mm 2 mps 717 mmHg 76%
    19:00 +16°C° 0 mm 1 mps 717 mmHg 78%
    20:00 +15°C° 0 mm 1 mps 717 mmHg 80%
    21:00 +15°C° 0 mm 1 mps 717 mmHg 84%
    22:00 +14°C° 0 mm 1 mps 717 mmHg 87%
    23:00 +14°C° 0 mm 1 mps 717 mmHg 90%
    Show more